| time (UTC) | temp F | wind direction | speed knots | gust knots | rain 1hr in | rain 24hr in | rain mn in | humidity % | barometer mb |
| 20260905144858 | 69 | 340 | 7.8 | 13.0 | 0.00 | 0.01 | 0.00 | 58 | 1024.3 |
| 20260905144359 | 69 | 298 | 7.0 | 12.2 | 0.00 | 0.02 | 0.00 | 59 | 1024.2 |
| 20260905143901 | 69 | 336 | 6.1 | 9.6 | 0.00 | 0.02 | 0.00 | 58 | 1024.2 |
| 20260905143359 | 69 | 312 | 4.3 | 13.9 | 0.00 | 0.02 | 0.00 | 58 | 1024.2 |
| 20260905142859 | 69 | 334 | 5.2 | 13.9 | 0.00 | 0.02 | 0.00 | 60 | 1024.1 |
| 20260905142358 | 68 | 0 | 4.3 | 13.9 | 0.00 | 0.02 | 0.00 | 60 | 1024.0 |
| 20260905141858 | 68 | 300 | 5.2 | 15.6 | 0.00 | 0.02 | 0.00 | 54 | 1023.9 |
| 20260905141742 | 69 | 324 | 8.7 | 15.6 | 0.00 | 0.02 | 0.00 | 54 | 1024.0 |
| 20260905140858 | 69 | 331 | 7.0 | 18.2 | 0.00 | 0.02 | 0.00 | 52 | 1023.9 |
| 20260905140359 | 69 | 336 | 7.8 | 18.2 | 0.00 | 0.02 | 0.00 | 51 | 1023.9 |
| 20260905135858 | 69 | 274 | 7.8 | 16.5 | 0.00 | 0.02 | 0.00 | 53 | 1023.9 |
| 20260905135357 | 68 | 233 | 7.8 | 16.5 | 0.00 | 0.02 | 0.00 | 56 | 1023.8 |
| 20260905134857 | 68 | 351 | 7.0 | 13.0 | 0.00 | 0.02 | 0.00 | 60 | 1023.9 |
| 20260905134739 | 68 | 340 | 7.8 | 13.0 | 0.00 | 0.02 | 0.00 | 58 | 1023.8 |
| 20260905133856 | 68 | 268 | 6.1 | 11.3 | 0.00 | 0.02 | 0.00 | 60 | 1023.7 |
| 20260905133357 | 68 | 265 | 5.2 | 10.4 | 0.00 | 0.03 | 0.00 | 64 | 1023.7 |
| 20260905132858 | 68 | 269 | 6.1 | 10.4 | 0.00 | 0.03 | 0.00 | 62 | 1023.6 |
| 20260905132356 | 68 | 324 | 3.5 | 13.0 | 0.00 | 0.03 | 0.00 | 60 | 1023.5 |
| 20260905131857 | 69 | 313 | 6.1 | 13.0 | 0.00 | 0.04 | 0.00 | 59 | 1023.5 |
| 20260905131357 | 69 | 341 | 5.2 | 13.0 | 0.00 | 0.04 | 0.00 | 62 | 1023.5 |
| 20260905130857 | 68 | 323 | 6.1 | 13.0 | 0.00 | 0.06 | 0.00 | 65 | 1023.4 |
| 20260905130355 | 67 | 314 | 4.3 | 12.2 | 0.00 | 0.06 | 0.00 | 62 | 1023.4 |
| 20260905125855 | 67 | 303 | 7.0 | 12.2 | 0.00 | 0.06 | 0.00 | 62 | 1023.4 |
| 20260905125356 | 67 | 350 | 5.2 | 12.2 | 0.00 | 0.06 | 0.00 | 63 | 1023.3 |
| 20260905124857 | 67 | 345 | 7.8 | 13.0 | 0.00 | 0.07 | 0.00 | 62 | 1023.4 |
| 20260905124356 | 67 | 354 | 6.1 | 13.0 | 0.00 | 0.07 | 0.00 | 62 | 1023.4 |
| 20260905123857 | 68 | 331 | 5.2 | 10.4 | 0.00 | 0.07 | 0.00 | 60 | 1023.2 |
| 20260905123750 | 69 | 314 | 4.3 | 10.4 | 0.00 | 0.07 | 0.00 | 60 | 1023.2 |
| 20260905122856 | 69 | 317 | 6.1 | 11.3 | 0.00 | 0.07 | 0.00 | 62 | 1023.1 |
| 20260905122355 | 69 | 323 | 6.1 | 11.3 | 0.00 | 0.07 | 0.00 | 61 | 1023.0 |
| 20260905121854 | 69 | 358 | 5.2 | 12.2 | 0.00 | 0.08 | 0.00 | 59 | 1023.0 |
| 20260905121742 | 71 | 350 | 6.1 | 12.2 | 0.00 | 0.08 | 0.00 | 57 | 1022.9 |
| 20260905120855 | 70 | 288 | 3.5 | 11.3 | 0.00 | 0.08 | 0.00 | 61 | 1022.9 |
| 20260905120355 | 70 | 290 | 7.0 | 11.3 | 0.00 | 0.08 | 0.00 | 60 | 1022.9 |
| 20260905115855 | 70 | 333 | 5.2 | 11.3 | 0.00 | 0.08 | 0.00 | 62 | 1022.8 |
| 20260905115354 | 69 | 327 | 5.2 | 11.3 | 0.00 | 0.08 | 0.00 | 62 | 1022.9 |
| 20260905114854 | 70 | 334 | 6.1 | 9.6 | 0.00 | 0.08 | 0.00 | 62 | 1022.9 |
| 20260905114356 | 68 | 310 | 6.1 | 12.2 | 0.00 | 0.08 | 0.00 | 65 | 1023.0 |
| 20260905114243 | 67 | 330 | 6.1 | 12.2 | 0.00 | 0.08 | 0.00 | 62 | 1022.9 |
| 20260905113353 | 69 | 326 | 6.1 | 12.2 | 0.00 | 0.08 | 0.00 | 60 | 1022.9 |
| 20260905112855 | 69 | 282 | 6.1 | 12.2 | 0.00 | 0.08 | 0.00 | 61 | 1022.7 |
| 20260905112354 | 69 | 354 | 7.8 | 13.0 | 0.00 | 0.08 | 0.00 | 60 | 1022.6 |
| 20260905111853 | 69 | 314 | 5.2 | 13.0 | 0.00 | 0.08 | 0.00 | 60 | 1022.5 |
| 20260905111741 | 70 | 264 | 4.3 | 13.0 | 0.00 | 0.08 | 0.00 | 59 | 1022.6 |
| 20260905111244 | 70 | 0 | 7.8 | 13.9 | 0.00 | 0.08 | 0.00 | 59 | 1022.7 |
| 20260905110353 | 70 | 292 | 7.0 | 15.6 | 0.00 | 0.08 | 0.00 | 62 | 1022.7 |
| 20260905105853 | 69 | 268 | 8.7 | 15.6 | 0.00 | 0.08 | 0.00 | 62 | 1022.7 |
| 20260905105352 | 67 | 262 | 7.0 | 12.2 | 0.00 | 0.10 | 0.00 | 63 | 1022.6 |
| 20260905104907 | 67 | 275 | 6.1 | 11.3 | 0.00 | 0.11 | 0.00 | 66 | 1022.7 |
| 20260905104352 | 67 | 324 | 3.5 | 11.3 | 0.00 | 0.11 | 0.00 | 67 | 1022.6 |
| 20260905104140 | 68 | 306 | 3.5 | 13.9 | 0.00 | 0.11 | 0.00 | 66 | 1022.4 |
| 20260905104024 | 67 | 309 | 6.1 | 11.3 | 0.00 | 0.11 | 0.00 | 66 | 1022.5 |
| 20260905102854 | 68 | 261 | 5.2 | 13.9 | 0.00 | 0.11 | 0.00 | 65 | 1022.5 |
| 20260905102352 | 68 | 306 | 6.1 | 11.3 | 0.00 | 0.11 | 0.00 | 64 | 1022.4 |
| 20260905101855 | 69 | 306 | 6.1 | 13.0 | 0.00 | 0.11 | 0.00 | 62 | 1022.2 |
| 20260905101352 | 69 | 272 | 7.8 | 13.9 | 0.00 | 0.11 | 0.00 | 64 | 1022.3 |
| 20260905100852 | 68 | 300 | 7.0 | 13.9 | 0.00 | 0.11 | 0.00 | 71 | 1022.2 |
| 20260905100353 | 69 | 276 | 6.1 | 10.4 | 0.00 | 0.11 | 0.00 | 71 | 1022.1 |
| 20260905095850 | 0 | 295 | 3.5 | 6.1 | 0.00 | 0.11 | 0.00 | 1022.1 | |
| 20260905095351 | 0 | 285 | 3.5 | 11.3 | 0.00 | 0.11 | 0.00 | 1021.9 | |
| 20260905094854 | 0 | 293 | 11.3 | 11.3 | 0.00 | 0.11 | 0.00 | 1022.1 | |
| 20260905094357 | 66 | 289 | 5.2 | 6.1 | 0.00 | 0.11 | 0.00 | 69 | 1022.1 |
| 20260905093851 | 0 | 312 | 6.1 | 6.1 | 0.00 | 0.11 | 0.00 | 1022.0 | |
| 20260905093558 | 0 | 276 | 7.8 | 10.4 | 0.00 | 0.11 | 0.00 | 1021.5 | |
| 20260905093504 | 67 | 261 | 6.1 | 10.4 | 0.00 | 0.11 | 0.00 | 71 | 1021.8 |
| 20260905092351 | 0 | 247 | 2.6 | 11.3 | 0.00 | 0.11 | 0.00 | 1021.8 | |
| 20260905092221 | 67 | 252 | 9.6 | 11.3 | 0.00 | 0.11 | 0.00 | 71 | 1021.8 |
| 20260905091349 | 0 | 0.0 | 0.0 | 0.00 | 0.11 | 0.00 | 1021.6 | ||
| 20260905090852 | 67 | 0.0 | 0.0 | 0.00 | 0.11 | 0.00 | 73 | 1021.2 | |
| 20260905090352 | 67 | 0.0 | 0.0 | 0.00 | 0.11 | 0.00 | 72 | 1021.4 | |
| 20260905085851 | 67 | 0.0 | 0.0 | 0.00 | 0.11 | 0.00 | 72 | 1021.4 | |
| 20260905085349 | 67 | 0.0 | 0.0 | 0.00 | 0.11 | 0.00 | 74 | 1021.3 | |
| 20260905084851 | 66 | 0.0 | 0.0 | 0.00 | 0.11 | 0.00 | 74 | 1021.2 | |
| 20260905084350 | 66 | 0.0 | 0.0 | 0.00 | 0.11 | 0.00 | 74 | 1021.1 | |
| 20260905083851 | 66 | 0.0 | 0.0 | 0.00 | 0.11 | 0.00 | 74 | 1021.2 | |
| 20260905083722 | 66 | 0.0 | 0.0 | 0.00 | 0.11 | 0.00 | 74 | 1021.1 | |
| 20260905082851 | 65 | 0.0 | 0.0 | 0.00 | 0.11 | 0.00 | 76 | 1020.9 | |
| 20260905082350 | 65 | 0.0 | 5.2 | 0.00 | 0.11 | 0.00 | 76 | 1021.0 | |
| 20260905081849 | 65 | 250 | 5.2 | 5.2 | 0.00 | 0.11 | 0.00 | 78 | 1021.0 |
| 20260905081348 | 65 | 0.0 | 0.0 | 0.00 | 0.11 | 0.00 | 78 | 1021.0 | |
| 20260905080850 | 64 | 0.0 | 8.7 | 0.00 | 0.11 | 0.00 | 78 | 1021.1 | |
| 20260905080349 | 64 | 223 | 7.8 | 10.4 | 0.00 | 0.11 | 0.00 | 80 | 1021.0 |
| 20260905075849 | 63 | 227 | 8.7 | 10.4 | 0.00 | 0.11 | 0.00 | 81 | 1021.0 |
| 20260905075349 | 62 | 240 | 5.2 | 6.1 | 0.00 | 0.11 | 0.00 | 81 | 1021.0 |
| 20260905075215 | 62 | 233 | 4.3 | 7.8 | 0.00 | 0.11 | 0.00 | 81 | 1020.8 |
| 20260905074349 | 61 | 261 | 5.2 | 9.6 | 0.00 | 0.11 | 0.00 | 81 | 1020.8 |
| 20260905073850 | 61 | 268 | 7.8 | 9.6 | 0.00 | 0.11 | 0.00 | 81 | 1020.7 |
| 20260905073723 | 0 | 248 | 7.8 | 9.6 | 0.00 | 0.11 | 0.00 | 1020.7 | |
| 20260905073222 | 61 | 309 | 5.2 | 6.1 | 0.00 | 0.11 | 0.00 | 82 | 1020.6 |
| 20260905072350 | 61 | 243 | 3.5 | 8.7 | 0.00 | 0.11 | 0.00 | 83 | 1020.5 |
| 20260905071850 | 60 | 254 | 6.1 | 10.4 | 0.00 | 0.11 | 0.00 | 83 | 1020.5 |
| 20260905071348 | 60 | 248 | 7.0 | 10.4 | 0.00 | 0.11 | 0.00 | 84 | 1020.5 |
| 20260905070848 | 60 | 254 | 3.5 | 9.6 | 0.00 | 0.11 | 0.00 | 84 | 1020.3 |
| 20260905070348 | 60 | 238 | 4.3 | 6.1 | 0.00 | 0.11 | 0.00 | 84 | 1020.3 |
| 20260905065847 | 59 | 258 | 5.2 | 10.4 | 0.00 | 0.11 | 0.00 | 85 | 1020.3 |
| 20260905065346 | 59 | 264 | 3.5 | 10.4 | 0.00 | 0.11 | 0.00 | 85 | 1020.3 |
| 20260905064848 | 59 | 220 | 3.5 | 8.7 | 0.00 | 0.11 | 0.00 | 85 | 1020.2 |
| 20260905064818 | 58 | 221 | 5.2 | 6.1 | 0.00 | 0.11 | 0.00 | 85 | 1020.0 |
| 20260905064812 | 58 | 268 | 6.1 | 8.7 | 0.00 | 0.11 | 0.00 | 85 | 1020.1 |
| 20260905064009 | 58 | 254 | 4.3 | 6.1 | 0.00 | 0.11 | 0.00 | 85 | 1020.1 |
| 20260905062848 | 58 | 230 | 3.5 | 6.1 | 0.00 | 0.11 | 0.00 | 86 | 1020.1 |
| 20260905062346 | 58 | 221 | 5.2 | 7.8 | 0.00 | 0.11 | 0.00 | 86 | 1020.1 |
| 20260905061847 | 58 | 251 | 4.3 | 7.8 | 0.00 | 0.11 | 0.00 | 86 | 1019.9 |
| 20260905061347 | 57 | 241 | 4.3 | 8.7 | 0.00 | 0.11 | 0.00 | 87 | 1019.9 |
| 20260905061229 | 57 | 231 | 3.5 | 8.7 | 0.00 | 0.11 | 0.00 | 86 | 1019.8 |
| 20260905060347 | 57 | 245 | 4.3 | 6.1 | 0.00 | 0.11 | 0.00 | 87 | 1019.7 |
| 20260905055846 | 57 | 259 | 3.5 | 8.7 | 0.00 | 0.11 | 0.00 | 87 | 1019.7 |
| 20260905055346 | 57 | 230 | 3.5 | 8.7 | 0.00 | 0.11 | 0.00 | 87 | 1019.6 |
| 20260905054846 | 57 | 247 | 4.3 | 6.1 | 0.00 | 0.11 | 0.00 | 87 | 1019.6 |
| 20260905054347 | 57 | 247 | 4.3 | 5.2 | 0.00 | 0.11 | 0.00 | 87 | 1019.5 |
| 20260905053846 | 57 | 219 | 3.5 | 6.1 | 0.00 | 0.11 | 0.00 | 88 | 1019.4 |
| 20260905053346 | 56 | 206 | 3.5 | 6.1 | 0.00 | 0.11 | 0.00 | 88 | 1019.4 |
| 20260905052844 | 56 | 231 | 4.3 | 5.2 | 0.00 | 0.11 | 0.00 | 88 | 1019.3 |
| 20260905052344 | 56 | 233 | 3.5 | 6.1 | 0.00 | 0.11 | 0.00 | 88 | 1019.2 |
| 20260905051846 | 56 | 241 | 4.3 | 6.1 | 0.00 | 0.11 | 0.00 | 88 | 1019.1 |
| 20260905051346 | 56 | 230 | 3.5 | 6.1 | 0.00 | 0.11 | 0.00 | 88 | 1019.0 |
| 20260905050846 | 56 | 245 | 3.5 | 6.1 | 0.00 | 0.11 | 0.00 | 88 | 1019.1 |
| 20260905050344 | 56 | 231 | 5.2 | 6.1 | 0.00 | 0.11 | 0.00 | 88 | 1018.9 |
| 20260905045844 | 56 | 210 | 3.5 | 7.8 | 0.00 | 0.11 | 0.00 | 88 | 1018.9 |
| 20260905045343 | 56 | 221 | 3.5 | 7.8 | 0.00 | 0.11 | 0.00 | 88 | 1018.9 |
| 20260905044844 | 56 | 206 | 4.3 | 6.1 | 0.00 | 0.11 | 0.00 | 87 | 1018.8 |
| 20260905044344 | 56 | 226 | 3.5 | 5.2 | 0.00 | 0.11 | 0.00 | 87 | 1018.7 |
| 20260905043844 | 56 | 233 | 3.5 | 5.2 | 0.00 | 0.11 | 0.00 | 87 | 1018.7 |
| 20260905043345 | 56 | 234 | 2.6 | 4.3 | 0.00 | 0.11 | 0.00 | 87 | 1018.7 |
| 20260905043227 | 56 | 235 | 2.6 | 4.3 | 0.00 | 0.11 | 0.00 | 87 | 1018.8 |
| 20260905042726 | 56 | 233 | 3.5 | 4.3 | 0.00 | 0.11 | 0.00 | 86 | 1018.6 |
| 20260905041845 | 56 | 238 | 2.6 | 4.3 | 0.00 | 0.11 | 0.00 | 86 | 1018.5 |
| 20260905041345 | 57 | 244 | 2.6 | 5.2 | 0.00 | 0.11 | 0.00 | 86 | 1018.4 |
| 20260905040843 | 57 | 241 | 1.7 | 5.2 | 0.00 | 0.11 | 0.00 | 86 | 1018.5 |
| 20260905040345 | 57 | 240 | 2.6 | 5.2 | 0.00 | 0.11 | 0.00 | 86 | 1018.5 |
| 20260905035843 | 57 | 241 | 3.5 | 5.2 | 0.00 | 0.11 | 0.00 | 86 | 1018.6 |
| 20260905035342 | 57 | 244 | 2.6 | 5.2 | 0.00 | 0.11 | 0.00 | 86 | 1018.4 |
| 20260905034845 | 57 | 243 | 1.7 | 6.1 | 0.00 | 0.11 | 0.00 | 86 | 1018.4 |
| 20260905034345 | 57 | 234 | 3.5 | 6.1 | 0.00 | 0.11 | 0.00 | 86 | 1018.3 |
| 20260905033841 | 57 | 251 | 3.5 | 5.2 | 0.00 | 0.11 | 0.00 | 86 | 1018.3 |
| 20260905033344 | 57 | 234 | 3.5 | 5.2 | 0.00 | 0.11 | 0.00 | 86 | 1018.3 |
| 20260905032843 | 57 | 219 | 3.5 | 5.2 | 0.00 | 0.11 | 0.00 | 86 | 1018.3 |
| 20260905032343 | 57 | 235 | 3.5 | 5.2 | 0.00 | 0.11 | 0.00 | 86 | 1018.2 |
| 20260905032227 | 57 | 230 | 3.5 | 5.2 | 0.00 | 0.11 | 0.00 | 87 | 1018.1 |
| 20260905031341 | 57 | 227 | 2.6 | 5.2 | 0.00 | 0.11 | 0.00 | 87 | 1018.1 |
| 20260905030842 | 56 | 228 | 3.5 | 5.2 | 0.00 | 0.11 | 0.00 | 87 | 1018.1 |
| 20260905030343 | 56 | 223 | 2.6 | 4.3 | 0.00 | 0.11 | 0.00 | 87 | 1018.0 |
| 20260905025841 | 56 | 217 | 2.6 | 4.3 | 0.00 | 0.11 | 0.00 | 87 | 1018.0 |
| 20260905025726 | 56 | 221 | 3.5 | 4.3 | 0.00 | 0.11 | 0.00 | 87 | 1017.9 |
| 20260905025249 | 56 | 213 | 1.7 | 3.5 | 0.00 | 0.11 | 0.00 | 87 | 1017.9 |
| 20260905024354 | 56 | 212 | 1.7 | 4.3 | 0.00 | 0.11 | 0.00 | 87 | 1018.0 |
| 20260905023840 | 56 | 210 | 1.7 | 5.2 | 0.00 | 0.11 | 0.00 | 87 | 1017.9 |
| 20260905023341 | 56 | 214 | 2.6 | 5.2 | 0.00 | 0.11 | 0.00 | 87 | 1017.9 |
| 20260905022841 | 56 | 228 | 2.6 | 4.3 | 0.00 | 0.11 | 0.00 | 87 | 1017.8 |
| 20260905022340 | 56 | 230 | 3.5 | 4.3 | 0.00 | 0.11 | 0.00 | 87 | 1017.8 |
| 20260905021856 | 56 | 237 | 2.6 | 4.3 | 0.00 | 0.11 | 0.00 | 87 | 1017.8 |
| 20260905021342 | 56 | 231 | 1.7 | 4.3 | 0.00 | 0.11 | 0.00 | 87 | 1017.7 |
| 20260905021230 | 56 | 227 | 1.7 | 5.2 | 0.00 | 0.11 | 0.00 | 87 | 1017.7 |
| 20260905020339 | 56 | 223 | 2.6 | 5.2 | 0.00 | 0.11 | 0.00 | 87 | 1017.7 |
| 20260905015841 | 56 | 226 | 4.3 | 5.2 | 0.00 | 0.11 | 0.00 | 87 | 1017.6 |
| 20260905015340 | 56 | 221 | 3.5 | 5.2 | 0.00 | 0.11 | 0.00 | 87 | 1017.6 |
| 20260905014841 | 56 | 221 | 3.5 | 4.3 | 0.00 | 0.11 | 0.00 | 87 | 1017.6 |
| 20260905014340 | 56 | 214 | 1.7 | 4.3 | 0.00 | 0.11 | 0.00 | 87 | 1017.6 |
| 20260905013841 | 56 | 216 | 2.6 | 3.5 | 0.00 | 0.11 | 0.00 | 87 | 1017.6 |
| 20260905013338 | 56 | 213 | 2.6 | 4.3 | 0.00 | 0.11 | 0.00 | 87 | 1017.5 |
| 20260905012839 | 57 | 223 | 3.5 | 5.2 | 0.00 | 0.11 | 0.00 | 87 | 1017.5 |
| 20260905012337 | 56 | 230 | 3.5 | 5.2 | 0.00 | 0.11 | 0.00 | 87 | 1017.6 |
| 20260905011839 | 56 | 234 | 3.5 | 4.3 | 0.00 | 0.11 | 0.00 | 87 | 1017.5 |
| 20260905011337 | 56 | 248 | 3.5 | 4.3 | 0.00 | 0.11 | 0.00 | 87 | 1017.5 |
| 20260905010838 | 57 | 224 | 2.6 | 5.2 | 0.00 | 0.11 | 0.00 | 87 | 1017.4 |
| 20260905010341 | 57 | 227 | 3.5 | 5.2 | 0.00 | 0.11 | 0.00 | 87 | 1017.4 |
| 20260905005840 | 57 | 224 | 2.6 | 4.3 | 0.00 | 0.11 | 0.00 | 87 | 1017.3 |
| 20260905005340 | 57 | 226 | 2.6 | 3.5 | 0.00 | 0.11 | 0.00 | 87 | 1017.3 |
| 20260905004837 | 57 | 226 | 1.7 | 4.3 | 0.00 | 0.11 | 0.00 | 87 | 1017.3 |
| 20260905004340 | 57 | 226 | 2.6 | 4.3 | 0.00 | 0.11 | 0.00 | 87 | 1017.3 |
| 20260905003838 | 57 | 226 | 2.6 | 3.5 | 0.00 | 0.11 | 0.00 | 86 | 1017.4 |
| 20260905003337 | 57 | 224 | 2.6 | 4.3 | 0.00 | 0.11 | 0.00 | 86 | 1017.3 |
| 20260905002835 | 57 | 226 | 3.5 | 4.3 | 0.00 | 0.11 | 0.00 | 86 | 1017.3 |
| 20260905002718 | 57 | 227 | 1.7 | 3.5 | 0.00 | 0.11 | 0.00 | 86 | 1017.5 |
| 20260905002123 | 57 | 231 | 1.7 | 3.5 | 0.00 | 0.11 | 0.00 | 85 | 1017.3 |
| 20260905002007 | 57 | 231 | 2.6 | 3.5 | 0.00 | 0.11 | 0.00 | 85 | 1017.4 |
| 20260905000836 | 58 | 230 | 2.6 | 3.5 | 0.00 | 0.11 | 0.00 | 84 | 1017.3 |
| 20260905000337 | 58 | 233 | 1.7 | 3.5 | 0.00 | 0.11 | 0.00 | 84 | 1017.3 |
| 20260905000219 | 58 | 234 | 2.6 | 3.5 | 0.00 | 0.11 | 0.00 | 84 | 1017.2 |
| 20260904235336 | 58 | 241 | 3.5 | 3.5 | 0.00 | 0.11 | 0.00 | 84 | 1017.2 |
| 20260904235215 | 58 | 243 | 0.0 | 2.6 | 0.00 | 0.11 | 0.00 | 83 | 1017.2 |
| 20260904234336 | 58 | 244 | 0.0 | 3.5 | 0.00 | 0.11 | 0.00 | 83 | 1017.3 |
| 20260904233836 | 59 | 244 | 0.9 | 4.3 | 0.00 | 0.11 | 0.00 | 83 | 1017.2 |
| 20260904233334 | 59 | 233 | 3.5 | 4.3 | 0.00 | 0.11 | 0.00 | 83 | 1017.2 |
| 20260904232834 | 59 | 234 | 3.5 | 4.3 | 0.00 | 0.11 | 0.00 | 81 | 1017.2 |
| 20260904232334 | 59 | 248 | 2.6 | 3.5 | 0.00 | 0.11 | 0.00 | 80 | 1017.1 |
| 20260904231835 | 59 | 248 | 1.7 | 3.5 | 0.00 | 0.11 | 0.00 | 80 | 1017.1 |
| 20260904231337 | 60 | 248 | 2.6 | 3.5 | 0.00 | 0.11 | 0.00 | 80 | 1017.1 |
| 20260904230834 | 60 | 252 | 2.6 | 3.5 | 0.00 | 0.11 | 0.00 | 79 | 1017.0 |
| 20260904230334 | 60 | 254 | 2.6 | 4.3 | 0.00 | 0.11 | 0.00 | 79 | 1017.0 |
| 20260904225834 | 60 | 255 | 2.6 | 4.3 | 0.00 | 0.11 | 0.00 | 79 | 1017.0 |
| 20260904225334 | 60 | 262 | 2.6 | 5.2 | 0.00 | 0.11 | 0.00 | 78 | 1016.9 |
| 20260904224836 | 60 | 269 | 1.7 | 6.1 | 0.00 | 0.11 | 0.00 | 79 | 1016.9 |
| 20260904224335 | 60 | 268 | 2.6 | 6.1 | 0.00 | 0.11 | 0.00 | 79 | 1016.9 |
| 20260904223834 | 61 | 279 | 3.5 | 6.1 | 0.00 | 0.11 | 0.00 | 79 | 1017.0 |
| 20260904223333 | 61 | 278 | 2.6 | 5.2 | 0.00 | 0.11 | 0.00 | 79 | 1016.9 |
| 20260904223110 | 61 | 271 | 4.3 | 7.8 | 0.00 | 0.11 | 0.00 | 79 | 1016.8 |
| 20260904223001 | 61 | 268 | 3.5 | 7.8 | 0.00 | 0.11 | 0.00 | 79 | 1016.9 |
| 20260904221834 | 61 | 279 | 3.5 | 4.3 | 0.00 | 0.11 | 0.00 | 79 | 1016.7 |
| 20260904221334 | 62 | 268 | 2.6 | 5.2 | 0.00 | 0.11 | 0.00 | 79 | 1016.6 |
| 20260904220833 | 62 | 285 | 3.5 | 5.2 | 0.00 | 0.11 | 0.00 | 79 | 1016.7 |
| 20260904220333 | 62 | 290 | 3.5 | 4.3 | 0.00 | 0.11 | 0.00 | 79 | 1016.7 |
| 20260904215834 | 62 | 278 | 3.5 | 6.1 | 0.00 | 0.11 | 0.11 | 78 | 1016.6 |
| 20260904215333 | 62 | 302 | 3.5 | 6.1 | 0.00 | 0.11 | 0.11 | 78 | 1016.6 |
| 20260904214945 | 63 | 272 | 1.7 | 4.3 | 0.00 | 0.11 | 0.11 | 79 | 1016.5 |
| 20260904214936 | 63 | 288 | 1.7 | 4.3 | 0.00 | 0.11 | 0.11 | 79 | 1016.5 |
| 20260904214906 | 63 | 313 | 1.7 | 5.2 | 0.00 | 0.11 | 0.11 | 79 | 1016.6 |
| 20260904213332 | 63 | 316 | 2.6 | 5.2 | 0.00 | 0.11 | 0.11 | 79 | 1016.5 |
| 20260904212832 | 63 | 293 | 1.7 | 5.2 | 0.00 | 0.11 | 0.11 | 79 | 1016.4 |
| 20260904212333 | 64 | 296 | 4.3 | 6.1 | 0.00 | 0.11 | 0.11 | 79 | 1016.4 |
| 20260904211834 | 64 | 258 | 2.6 | 6.1 | 0.00 | 0.11 | 0.11 | 79 | 1016.3 |
| 20260904211332 | 64 | 261 | 3.5 | 7.8 | 0.00 | 0.11 | 0.11 | 79 | 1016.3 |
| 20260904210833 | 64 | 251 | 3.5 | 7.8 | 0.00 | 0.11 | 0.11 | 79 | 1016.4 |
| 20260904210332 | 64 | 245 | 3.5 | 5.2 | 0.00 | 0.11 | 0.11 | 79 | 1016.4 |
| 20260904205832 | 64 | 261 | 3.5 | 5.2 | 0.00 | 0.11 | 0.11 | 79 | 1016.4 |
| 20260904205333 | 64 | 279 | 2.6 | 7.8 | 0.00 | 0.11 | 0.11 | 79 | 1016.3 |
| 20260904204834 | 64 | 268 | 3.5 | 7.8 | 0.00 | 0.11 | 0.11 | 79 | 1016.2 |
| 20260904204601 | 64 | 244 | 4.3 | 7.8 | 0.00 | 0.11 | 0.11 | 79 | 1016.1 |
| 20260904204454 | 64 | 241 | 1.7 | 7.8 | 0.00 | 0.11 | 0.11 | 78 | 1016.3 |
| 20260904203715 | 64 | 282 | 3.5 | 7.8 | 0.00 | 0.11 | 0.11 | 79 | 1016.0 |
| 20260904202845 | 64 | 275 | 3.5 | 5.2 | 0.00 | 0.11 | 0.11 | 78 | 1016.1 |
| 20260904202331 | 64 | 296 | 2.6 | 4.3 | 0.00 | 0.11 | 0.11 | 78 | 1015.9 |
| 20260904201832 | 64 | 281 | 3.5 | 4.3 | 0.00 | 0.11 | 0.11 | 78 | 1015.8 |
| 20260904201331 | 65 | 271 | 3.5 | 7.8 | 0.00 | 0.11 | 0.11 | 78 | 1015.7 |
| 20260904200830 | 64 | 340 | 1.7 | 7.8 | 0.00 | 0.11 | 0.11 | 79 | 1015.7 |
| 20260904200333 | 65 | 292 | 2.6 | 5.2 | 0.00 | 0.11 | 0.11 | 79 | 1015.7 |
| 20260904195830 | 65 | 305 | 1.7 | 6.1 | 0.00 | 0.11 | 0.11 | 79 | 1015.5 |
| 20260904195332 | 65 | 300 | 3.5 | 6.1 | 0.00 | 0.11 | 0.11 | 79 | 1015.5 |
| 20260904194947 | 65 | 307 | 2.6 | 7.8 | 0.00 | 0.11 | 0.11 | 79 | 1015.4 |
| 20260904194911 | 65 | 298 | 3.5 | 7.8 | 0.00 | 0.11 | 0.11 | 79 | 1015.5 |
| 20260904194454 | 65 | 283 | 3.5 | 7.8 | 0.00 | 0.11 | 0.11 | 79 | 1015.5 |
| 20260904193331 | 65 | 320 | 2.6 | 6.1 | 0.00 | 0.11 | 0.11 | 79 | 1015.4 |
| 20260904192830 | 65 | 292 | 3.5 | 5.2 | 0.00 | 0.11 | 0.11 | 80 | 1015.3 |
| 20260904192330 | 65 | 310 | 3.5 | 5.2 | 0.00 | 0.11 | 0.11 | 80 | 1015.4 |
| 20260904191830 | 65 | 296 | 2.6 | 5.2 | 0.00 | 0.11 | 0.11 | 80 | 1015.4 |
| 20260904191330 | 65 | 306 | 3.5 | 5.2 | 0.00 | 0.11 | 0.11 | 80 | 1015.4 |
| 20260904190830 | 65 | 338 | 2.6 | 6.1 | 0.00 | 0.11 | 0.11 | 80 | 1015.3 |
| 20260904190716 | 65 | 300 | 3.5 | 6.1 | 0.00 | 0.11 | 0.11 | 80 | 1015.2 |
| 20260904185829 | 65 | 323 | 3.5 | 7.8 | 0.00 | 0.11 | 0.11 | 81 | 1015.2 |
| 20260904185331 | 65 | 326 | 1.7 | 7.8 | 0.00 | 0.11 | 0.11 | 81 | 1015.0 |
| 20260904185216 | 65 | 316 | 3.5 | 6.1 | 0.00 | 0.11 | 0.11 | 81 | 1015.0 |
| 20260904184329 | 65 | 330 | 2.6 | 6.1 | 0.00 | 0.11 | 0.11 | 82 | 1015.0 |
| 20260904184056 | 66 | 324 | 1.7 | 6.1 | 0.00 | 0.11 | 0.11 | 82 | 1014.8 |
| 20260904183953 | 65 | 316 | 1.7 | 6.1 | 0.00 | 0.11 | 0.11 | 82 | 1014.8 |
| 20260904182830 | 66 | 320 | 2.6 | 6.1 | 0.00 | 0.11 | 0.11 | 82 | 1014.6 |
| 20260904182556 | 66 | 300 | 3.5 | 8.7 | 0.00 | 0.11 | 0.11 | 82 | 1014.6 |
| 20260904182448 | 66 | 300 | 0.9 | 7.8 | 0.00 | 0.11 | 0.11 | 82 | 1014.7 |
| 20260904181329 | 66 | 278 | 2.6 | 8.7 | 0.00 | 0.11 | 0.11 | 82 | 1014.6 |
| 20260904181102 | 66 | 324 | 3.5 | 6.1 | 0.00 | 0.11 | 0.11 | 81 | 1014.6 |
| 20260904180955 | 66 | 316 | 3.5 | 7.8 | 0.00 | 0.11 | 0.11 | 82 | 1014.7 |
| 20260904175827 | 66 | 269 | 3.5 | 11.3 | 0.00 | 0.11 | 0.11 | 81 | 1014.5 |
| 20260904175329 | 66 | 282 | 5.2 | 11.3 | 0.00 | 0.11 | 0.11 | 81 | 1014.7 |
| 20260904174828 | 66 | 319 | 4.3 | 10.4 | 0.00 | 0.11 | 0.11 | 81 | 1014.4 |
| 20260904174329 | 66 | 313 | 7.0 | 10.4 | 0.00 | 0.11 | 0.11 | 82 | 1014.2 |
| 20260904173826 | 66 | 6 | 3.5 | 6.1 | 0.00 | 0.11 | 0.11 | 81 | 1014.1 |
| 20260904173328 | 66 | 275 | 4.3 | 8.7 | 0.00 | 0.11 | 0.11 | 82 | 1014.0 |
| 20260904172828 | 66 | 278 | 4.3 | 8.7 | 0.00 | 0.11 | 0.11 | 82 | 1014.0 |
| 20260904172326 | 66 | 286 | 3.5 | 6.1 | 0.00 | 0.11 | 0.11 | 82 | 1014.1 |
| 20260904171828 | 66 | 248 | 3.5 | 8.7 | 0.00 | 0.11 | 0.11 | 82 | 1014.0 |
| 20260904171328 | 66 | 298 | 4.3 | 8.7 | 0.00 | 0.11 | 0.11 | 82 | 1014.0 |
| 20260904170828 | 66 | 316 | 3.5 | 10.4 | 0.00 | 0.11 | 0.11 | 82 | 1013.8 |
| 20260904170328 | 66 | 324 | 4.3 | 10.4 | 0.00 | 0.11 | 0.11 | 83 | 1014.0 |
| 20260904165828 | 67 | 298 | 3.5 | 5.2 | 0.00 | 0.11 | 0.11 | 83 | 1013.9 |
| 20260904165329 | 67 | 272 | 3.5 | 5.2 | 0.00 | 0.11 | 0.11 | 83 | 1013.8 |
| 20260904165205 | 67 | 275 | 3.5 | 7.8 | 0.00 | 0.11 | 0.11 | 83 | 1013.8 |
| 20260904164328 | 67 | 279 | 5.2 | 8.7 | 0.00 | 0.11 | 0.11 | 83 | 1013.7 |
| 20260904164207 | 67 | 281 | 4.3 | 8.7 | 0.00 | 0.11 | 0.11 | 83 | 1013.7 |
| 20260904163326 | 66 | 331 | 1.7 | 6.1 | 0.00 | 0.11 | 0.11 | 84 | 1013.5 |
| 20260904162828 | 66 | 286 | 4.3 | 8.7 | 0.00 | 0.11 | 0.11 | 84 | 1013.7 |
| 20260904162325 | 66 | 283 | 3.5 | 10.4 | 0.00 | 0.11 | 0.11 | 84 | 1013.7 |
| 20260904162213 | 66 | 302 | 5.2 | 10.4 | 0.00 | 0.11 | 0.11 | 86 | 1013.7 |
| 20260904161326 | 66 | 248 | 4.3 | 9.6 | 0.00 | 0.11 | 0.11 | 86 | 1013.7 |
| 20260904160826 | 66 | 293 | 5.2 | 7.8 | 0.00 | 0.11 | 0.11 | 86 | 1013.6 |
| 20260904160327 | 66 | 281 | 3.5 | 8.7 | 0.00 | 0.11 | 0.11 | 86 | 1013.8 |
| 20260904155824 | 66 | 251 | 5.2 | 10.4 | 0.01 | 0.11 | 0.09 | 87 | 1013.8 |
| 20260904155326 | 65 | 306 | 6.1 | 10.4 | 0.01 | 0.11 | 0.09 | 87 | 1013.7 |
| 20260904155055 | 65 | 244 | 4.3 | 10.4 | 0.02 | 0.11 | 0.09 | 88 | 1013.7 |
| 20260904154946 | 65 | 271 | 7.0 | 10.4 | 0.01 | 0.11 | 0.09 | 87 | 1013.8 |
| 20260904153823 | 65 | 276 | 5.2 | 10.4 | 0.02 | 0.11 | 0.09 | 88 | 1013.6 |
| 20260904153326 | 65 | 279 | 3.5 | 10.4 | 0.02 | 0.11 | 0.09 | 88 | 1013.5 |
| 20260904152824 | 65 | 265 | 5.2 | 10.4 | 0.02 | 0.11 | 0.09 | 88 | 1013.6 |
| 20260904152324 | 65 | 258 | 6.1 | 10.4 | 0.02 | 0.11 | 0.09 | 88 | 1013.4 |
| 20260904151823 | 65 | 259 | 5.2 | 9.6 | 0.02 | 0.11 | 0.09 | 89 | 1013.4 |
| 20260904151323 | 65 | 288 | 5.2 | 9.6 | 0.02 | 0.11 | 0.09 | 89 | 1013.5 |
| 20260904150823 | 64 | 271 | 4.3 | 11.3 | 0.02 | 0.10 | 0.10 | 89 | 1013.6 |
| 20260904150321 | 64 | 269 | 5.2 | 11.3 | 0.02 | 0.10 | 0.10 | 89 | 1013.7 |
| 20260904145824 | 64 | 269 | 5.2 | 11.3 | 0.02 | 0.09 | 0.07 | 89 | 1013.6 |
| 20260904145611 | 0 | 274 | 5.2 | 13.0 | 0.02 | 0.09 | 0.07 | 1013.5 | |
| 20260904145447 | 64 | 271 | 7.0 | 11.3 | 0.02 | 0.09 | 0.07 | 89 | 1013.8 |